User: anonymous   Login
Location: Bonn
(50.7330°N, 7.1000°E)
Time: 13:12:06
(UTC+01:00)
Language:

Rosat - Orbit

View from above orbital plane
View from above orbital plane
View from above satellite
View from above satellite

Ground track
Ground track

The orbit data is extracted from the following two-line orbital elements,

1 20638U 90049A   11295.95477602 +.11801250 +12635-4 +14055-3 0 05914
2 20638 052.9649 145.0450 0003875 266.7349 093.8309 16.49742883194609
Epoch (UTC): 22 October 2011 22:54:52
Eccentricity: 0.0003875
inclination: 52.9649°
perigee height: 137 km
apogee height: 142 km
right ascension of ascending node: 145.0450°
argument of perigee: 266.7349°
revolutions per day: 16.49742883
mean anomaly at epoch: 93.8309°
orbit number at epoch: 19460

The dashed part of the orbit path shows where the satellite is in the earth's shadow,  

DLR